This demonstration page uses our WeatherBlox Daily Observations layout. Learn more.

Left ArrowRight Arrow

39.08367, -84.50855

Hourly Observations for November 2, 2015

Temp ( °F °C ) Dew Point ( °F °C ) Humidity (%) Winds ( mph kmh ) Pressure ( in mb ) Visibility ( mi km ) Precip ( " mm )
12:21 am 00:21 Clear with Mist and Fog 49 9.4 49 9.4 100 100 Calm 30.06 1018 2 3 0.00 0.00
12:27 am 00:27 Clear with Mist and Fog 49 9.4 49 9.4 100 100 Calm 30.06 1018 1 1 0.00 0.00
12:30 am 00:30 Mostly Cloudy with Fog 47 8.3 47 8.3 100 100 Calm 30.06 1018 0 0 0.00 0.00
12:53 am 00:53 Cloudy with Fog 47 8.3 47 8.3 100 100 Calm 30.06 1018 0 0 0.00 0.00
1:53 am 01:53 Mostly Cloudy with Fog 46 7.8 46 7.8 100 100 Calm 30.07 1018 0 0 0.00 0.00
2:53 am 02:53 Mostly Cloudy with Fog 47 8.3 47 8.3 100 100 Calm 30.06 1018 0 0 0.00 0.00
3:53 am 03:53 Mostly Cloudy with Fog 47 8.3 47 8.3 100 100 Calm 30.05 1018 0 0 0.00 0.00
4:53 am 04:53 Mostly Cloudy with Fog 46 7.8 46 7.8 100 100 Calm 30.05 1018 0 0 0.00 0.00
5:53 am 05:53 Mostly Cloudy with Fog 44 6.7 44 6.7 100 100 Calm 30.06 1018 0 0 0.00 0.00
6:53 am 06:53 Mostly Cloudy with Fog 43 6.1 43 6.1 100 100 Calm 30.09 1019 0 0 0.00 0.00
7:53 am 07:53 Mostly Cloudy with Fog 44 6.7 44 6.7 100 100 Calm 30.09 1019 0 0 0.00 0.00
8:48 am 08:48 Mostly Cloudy with Fog 46 8 46 8 100 100 N 5 7 30.09 1019 1 1 0.00 0.00
8:53 am 08:53 Mostly Cloudy with Fog 46 7.8 46 7.8 100 100 NNE 3 6 30.09 1019 1 1 0.00 0.00
9:00 am 09:00 Partly Cloudy with Patchy Fog 46 8 46 8 100 100 Calm 30.09 1019 2 3 0.00 0.00
9:31 am 09:31 Partly Cloudy with Mist and Fog 49 9.4 49 9.4 100 100 SE 3 6 30.09 1019 5 8 0.00 0.00
9:53 am 09:53 Sunny 53 11.7 51 10.6 93 93 NE 6 9 30.09 1019 10 16 0.00 0.00
10:53 am 10:53 Sunny 58 14.4 51 10.6 78 78 Calm 30.08 1019 10 16 0.00 0.00
11:53 am 11:53 Sunny 62 16.7 52 11.1 70 70 WSW 3 6 30.06 1018 8 13 0.00 0.00
12:53 pm 12:53 Sunny 67 19.4 48 8.9 51 51 VRB 6 9 30.07 1018 10 16 0.00 0.00
1:53 pm 13:53 Sunny 68 20 49 9.4 51 51 NE 6 9 30.04 1017 10 16 0.00 0.00
2:53 pm 14:53 Sunny 69 20.6 49 9.4 49 49 E 6 9 30.03 1017 10 16 0.00 0.00
3:53 pm 15:53 Sunny 69 20.6 48 8.9 47 47 E 5 7 30.02 1017 10 16 0.00 0.00
4:53 pm 16:53 Sunny 67 19.4 50 10 55 55 ENE 6 9 30.03 1017 10 16 0.00 0.00
5:53 pm 17:53 Clear 57 13.9 51 10.6 81 81 NNE 6 9 30.05 1018 10 16 0.00 0.00
6:53 pm 18:53 Clear 52 11.1 50 10 93 93 Calm 30.07 1018 10 16 0.00 0.00
7:53 pm 19:53 Clear 50 10 49 9.4 96 96 Calm 30.08 1019 10 16 0.00 0.00
8:53 pm 20:53 Clear 46 7.8 46 7.8 100 100 Calm 30.08 1019 10 16 0.00 0.00
9:53 pm 21:53 Clear 46 7.8 46 7.8 100 100 Calm 30.09 1019 10 16 0.00 0.00
10:06 pm 22:06 Clear with Mist and Fog 45 7 43 6 93 93 Calm 30.09 1019 2 2 0.00 0.00
10:13 pm 22:13 Clear 45 7.2 45 7.2 100 100 Calm 30.09 1019 10 16 0.00 0.00
10:53 pm 22:53 Clear 44 6.7 44 6.7 100 100 Calm 30.09 1019 10 16 0.00 0.00
11:53 pm 23:53 Clear 42 5.6 42 5.6 100 100 Calm 30.09 1019 10 16 0.00 0.00

Powered by AerisWeather